Location: Im Fang
(46.6019°N, 7.2397°E)
Time: 13:56:02
(UTC+00:00)

Cosmos 2297 Rocket - Pass Details

Date: 08 December 2019
Orbit: 838 x 845 km, 71.0° (Epoch: 28 January)

Event Time Altitude Azimuth Distance (km) Brightness Sun altitude
Exits shadow 05:51:26 12° 317° (NW) 2,330 4.0 -11.6°
Maximum altitude 05:52:13 12° 326° (NW) 2,311 4.0 -11.5°
Drops below altitude 10° 05:54:25 10° 349° (N) 2,467 4.3 -11.1°
Sets 05:58:40 0° 20° (NNE) 3,407 5.3 -10.4°
